CAPE
0 0 0 0 0 0 0 0 0 0 0 0 0 1 2 0 0 0 4 4 0 1 0 0 0 0 0 0 49 109 84 83 122 0 143 24 127 32 261 234 85 69 33 31
0 0 0 0 0 0 0 0 0 0 0 0 3 4 10 5 0 17 0 0 0 0 0 0 2 0 0 0 13 183 204 98 25 26 385 94 233 70 176 77 87 66 70 85
0 0 0 0 0 0 0 0 0 0 0 0 0 0 0 0 1 0 0 0 0 0 0 0 8 0 0 0 0 220 104 64 0 111 310 69 34 89 136 110 60 22 37 91
0 0 0 0 0 0 0 0 0 0 0 0 0 0 0 0 0 0 0 0 0 0 0 0 14 8 0 0 43 35 111 0 8 6 114 294 212 105 62 54 57 27 39 54
0 0 0 0 0 0 0 0 0 0 0 0 0 0 0 0 0 0 0 0 0 0 0 0 25 18 0 0 0 86 0 0 93 71 75 363 268 181 101 3 24 42 67 146
0 0 0 0 0 0 0 0 0 0 1 0 0 0 0 0 0 0 0 0 0 0 0 0 22 20 0 0 0 0 25 16 112 310 95 150 47 124 28 16 20 28 72 82
0 0 0 0 0 0 0 0 0 0 0 0 0 0 0 0 0 0 0 0 0 0 0 1 41 3 0 0 0 0 28 0 0 41 47 62 47 77 4 0 11 31 42 48
0 0 0 0 0 0 0 0 0 0 0 0 0 0 0 0 0 0 0 0 0 2 0 0 20 0 1 0 0 0 10 0 0 0 3 53 87 20 0 0 2 19 32 32
0 0 0 0 0 0 0 0 0 0 0 0 0 0 0 0 0 0 0 3 0 0 13 26 0 0 0 0 0 0 8 0 0 0 0 106 71 81 49 21 0 21 23 54
0 0 0 0 0 0 0 0 0 0 0 0 0 0 0 0 0 0 2 17 31 64 62 0 0 0 0 0 0 0 0 0 0 0 0 118 246 178 87 97 67 60 39 21
0 0 0 0 0 0 0 6 1 0 0 0 0 0 0 0 0 2 39 52 53 118 23 0 0 0 0 0 0 0 0 0 0 0 0 27 381 151 238 143 29 40 14 63
0 0 0 0 0 0 0 0 0 0 0 0 0 0 0 6 7 49 113 122 130 83 0 0 0 0 0 0 0 0 0 0 0 0 0 2 243 212 227 295 69 129 123 58
0 0 0 0 0 0 0 0 0 0 0 0 0 0 0 0 147 199 200 149 61 2 0 0 0 0 0 0 0 0 0 0 0 0 0 0 174 207 162 212 96 73 56 116
0 0 0 0 0 0 0 0 0 0 0 0 0 0 0 0 56 171 127 82 1 0 0 0 0 0 0 0 0 0 0 0 0 0 0 56 72 185 178 95 124 36 46 95
0 0 0 0 34 23 0 0 0 0 0 0 0 4 0 0 0 105 85 98 23 7 0 0 0 0 0 0 0 0 0 0 0 0 0 0 78 45 167 109 132 10 42 126
1 0 0 0 4 55 12 0 0 0 0 0 0 0 0 0 1 17 96 67 49 15 0 0 0 0 0 0 0 0 0 0 0 0 0 0 33 455 43 60 79 38 154 72
0 0 0 0 2 66 34 0 0 0 0 0 0 0 8 9 0 69 40 49 55 92 0 0 0 0 0 0 0 0 0 0 0 0 0 0 7 72 58 0 0 95 0 0
0 0 0 0 1 62 2 0 0 0 0 0 0 0 0 6 9 106 50 60 90 86 9 0 0 0 0 0 0 0 0 0 0 0 0 0 0 182 88 5 0 18 1 0
0 4 17 0 0 55 6 16 0 0 0 0 0 0 0 0 86 168 117 113 147 117 39 0 0 0 0 0 0 0 0 0 0 0 0 0 0 12 147 79 0 13 7 0
0 0 11 2 6 0 7 0 17 0 0 0 0 0 11 0 0 0 36 161 219 81 38 13 29 8 0 0 0 0 0 0 0 0 0 0 0 0 5 196 23 124 41 93
19 77 124 31 40 71 20 38 22 9 0 15 0 0 0 0 0 0 1 159 198 161 71 79 92 20 13 5 0 0 0 0 0 0 0 0 0 0 6 389 358 205 386 104
5 28 84 79 148 162 163 67 25 4 71 44 10 26 0 69 30 89 159 119 106 308 170 154 109 69 60 21 13 0 0 0 0 0 0 0 0 0 461 561 517 317 458 262
0 22 24 10 209 149 102 112 442 131 189 52 226 103 10 33 1 20 102 204 161 299 317 187 125 100 119 76 46 0 0 0 0 0 0 0 0 43 564 435 451 279 209 407
10 25 23 0 55 48 38 66 81 38 245 259 301 114 0 0 0 2 311 320 239 302 427 236 285 251 220 164 92 16 0 1 0 0 0 0 0 178 432 315 311 179 79 72
0 5 30 0 19 22 35 68 0 29 58 36 64 71 0 0 0 0 345 318 335 411 443 483 519 322 198 132 123 128 17 0 0 0 0 0 0 126 236 198 161 107 29 4
0 37 36 0 0 19 20 67 0 22 125 87 47 60 96 21 0 0 231 221 218 179 520 590 606 545 358 264 305 328 262 77 0 2 0 0 0 15 66 147 176 82 45 10
CIN
-0 -0 -0 -0 -0 -0 -0 -0 -0 -0 -0 -0 -0 -17 -0 -0 -0 -0 -8 -2 -0 -3 -0 -0 -0 -0 -0 -0 -445 -326 -267 -191 -116 -0 -43 -35 -20 -58 -36 -28 -32 -22 -14 -10
-0 -0 -0 -0 -0 -0 -0 -0 -0 -0 -0 -0 -2 -4 -6 -10 -0 -5 -0 -0 -0 -0 -0 -0 -361 -0 -0 -0 -405 -294 -196 -165 -160 -115 -20 -19 -31 -29 -17 -28 -20 -15 -6 -10
-0 -0 -0 -0 -0 -0 -0 -0 -0 -0 -0 -0 -0 -0 -0 -0 -4 -0 -0 -0 -0 -0 -0 -0 -558 -0 -0 -0 -0 -244 -196 -152 -0 -55 -24 -43 -43 -34 -16 -23 -22 -10 -14 -4
-0 -0 -0 -0 -0 -0 -0 -0 -0 -0 -0 -0 -0 -0 -0 -0 -0 -0 -0 -0 -0 -0 -0 -0 -526 -542 -0 -0 -363 -302 -176 -21 -108 -134 -54 -32 -29 -19 -22 -30 -29 -25 -11 -12
-0 -0 -0 -0 -0 -0 -0 -0 -0 -0 -0 -6 -0 -0 -0 -0 -0 -0 -0 -0 -0 -0 -0 -0 -552 -502 -0 -0 -0 -226 -0 -0 -78 -47 -34 -7 -13 -22 -19 -30 -29 -35 -13 -6
-0 -0 -0 -0 -0 -0 -0 -0 -0 -3 -4 -0 -0 -0 -0 -0 -0 -0 -0 -0 -0 -0 -0 -0 -470 -443 -0 -0 -0 -113 -223 -157 -58 -9 -26 -13 -61 -51 -63 -31 -35 -40 -24 -30
-0 -0 -0 -0 -0 -0 -0 -0 -0 -0 -0 -0 -0 -0 -0 -0 -0 -0 -0 -0 -0 -0 -0 -171 -441 -410 -156 -0 -0 -0 -201 -0 -0 -60 -22 -30 -17 -57 -57 -0 -45 -17 -26 -17
-0 -0 -0 -0 -0 -0 -0 -1 -0 -0 -0 -0 -0 -0 -0 -0 -0 -0 -0 -0 -0 -96 -11 -0 -392 -71 -249 -0 -0 -0 -226 -0 -0 -0 -12 -29 -10 -71 -0 -0 -62 -40 -22 -27
-0 -0 -0 -0 -0 -0 -0 -0 -0 -0 -0 -0 -0 -0 -0 -0 -0 -0 -0 -233 -0 -0 -80 -77 -0 -0 -0 -0 -0 -0 -233 -0 -0 -0 -0 -14 -5 -57 -75 -81 -7 -32 -35 -27
-0 -0 -0 -0 -0 -0 -0 -0 -2 -0 -0 -0 -0 -0 -0 -0 -0 -0 -110 -145 -69 -68 -86 -0 -0 -0 -0 -0 -0 -0 -65 -0 -0 -0 -0 -18 -5 -49 -20 -22 -52 -19 -32 -36
-0 -0 -0 -0 -0 -0 -0 -10 -0 -0 -0 -0 -0 -0 -0 -0 -0 -78 -148 -106 -69 -61 -145 -50 -0 -0 -0 -0 -0 -0 -0 -0 -0 -0 -0 -20 -14 -30 -28 -33 -60 -37 -57 -34
-0 -0 -0 -0 -0 -0 -0 -0 -0 -0 -0 -0 -0 -0 -0 -110 -106 -136 -125 -79 -45 -59 -0 -0 -0 -0 -0 -0 -0 -0 -0 -0 -0 -0 -0 -0 -3 -7 -23 -22 -74 -26 -20 -31
-0 -0 -0 -0 -0 -0 -0 -0 -0 -0 -0 -0 -0 -0 -0 -0 -66 -78 -135 -85 -95 -19 -0 -0 -0 -0 -0 -0 -0 -0 -0 -0 -0 -0 -0 -0 -11 -15 -31 -30 -48 -53 -49 -18
-0 -0 -0 -0 -0 -0 -0 -0 -0 -0 -0 -0 -0 -0 -0 -0 -78 -92 -87 -120 -18 -0 -0 -0 -0 -0 -0 -0 -0 -0 -0 -0 -0 -0 -0 -6 -4 -5 -15 -17 -35 -85 -51 -32
-0 -0 -0 -0 -21 -4 -0 -0 -0 -0 -0 -0 -17 -40 -0 -0 -0 -78 -94 -108 -108 -60 -0 -0 -0 -0 -0 -0 -0 -0 -0 -0 -0 -0 -0 -0 -23 -21 -12 -4 -53 -65 -44 -27
-7 -0 -0 -0 -5 -11 -2 -0 -0 -0 -0 -0 -0 -0 -0 -0 -2 -124 -107 -121 -97 -49 -0 -0 -0 -0 -0 -0 -0 -0 -0 -0 -0 -0 -0 -0 -32 -2 -32 -14 -35 -5 -17 -34
-0 -0 -0 -0 -6 -4 -10 -0 -0 -0 -0 -0 -0 -0 -95 -38 -0 -83 -83 -102 -95 -52 -0 -0 -0 -0 -0 -0 -0 -0 -0 -0 -0 -0 -0 -0 -107 -43 -32 -0 -0 -8 -0 -8
-0 -0 -0 -0 -16 -23 -10 -15 -0 -0 -0 -0 -0 -0 -0 -77 -38 -66 -78 -80 -94 -91 -91 -0 -0 -0 -0 -0 -0 -0 -0 -0 -0 -0 -0 -0 -0 -44 -44 -23 -0 -79 -1 -0
-0 -18 -36 -0 -0 -25 -5 -12 -0 -0 -0 -0 -0 -0 -0 -0 -30 -55 -51 -52 -80 -107 -93 -0 -0 -16 -0 -0 -0 -0 -0 -0 -0 -0 -0 -0 -0 -219 -79 -92 -0 -97 -127 -0
-6 -0 -23 -3 -10 -0 -41 -2 -0 -0 -0 -0 -0 -0 -105 -0 -0 -0 -54 -65 -68 -115 -108 -103 -229 -202 -15 -9 -0 -0 -0 -0 -0 -0 -0 -0 -0 -0 -84 -127 -218 -104 -160 -102
-121 -62 -49 -25 -43 -11 -20 -26 -5 -3 -0 -38 -0 -0 -0 -0 -0 -0 -24 -47 -70 -127 -86 -233 -238 -158 -108 -184 -0 -0 -0 -0 -0 -0 -0 -0 -0 -0 -136 -136 -119 -133 -34 -155
-5 -19 -9 -5 -15 -10 -35 -25 -10 -14 -67 -52 -101 -101 -0 -144 -92 -60 -66 -81 -129 -99 -188 -221 -217 -43 -54 -142 -157 -0 -0 -0 -0 -0 -0 -0 -0 -32 -219 -120 -113 -143 -64 -104
-43 -12 -13 -4 -90 -49 -90 -43 -119 -119 -91 -44 -78 -66 -104 -137 -11 -91 -49 -103 -115 -100 -89 -197 -103 -41 -20 -53 -101 -0 -0 -0 -0 -0 -0 -0 -0 -364 -168 -179 -159 -203 -225 -116
-62 -13 -22 -3 -51 -20 -67 -102 -147 -92 -51 -57 -52 -54 -0 -0 -0 -81 -46 -41 -71 -65 -70 -151 -207 -34 -37 -32 -60 -182 -0 -118 -0 -0 -0 -0 -0 -352 -235 -249 -256 -308 -389 -378
-0 -34 -15 -4 -68 -27 -57 -29 -0 -84 -75 -20 -19 -43 -0 -0 -0 -0 -18 -17 -24 -33 -21 -41 -177 -131 -40 -38 -67 -79 -151 -0 -0 -0 -0 -0 -0 -376 -315 -352 -369 -388 -466 -491
-0 -21 -15 -68 -34 -47 -44 -39 -12 -112 -71 -45 -71 -10 -38 -108 -0 -0 -64 -22 -27 -25 -36 -55 -121 -189 -200 -25 -34 -33 -42 -87 -10 -301 -0 -0 -0 -470 -394 -357 -365 -420 -456 -510
Wind_Speed
nan nan nan nan nan nan nan nan nan nan nan nan nan nan nan nan nan nan nan nan nan nan nan nan nan nan nan nan nan 32 nan nan 29 nan 26 nan 24 nan 22 21 nan nan nan nan
nan nan nan nan nan nan nan nan nan nan nan nan nan nan nan nan nan nan nan nan nan nan nan nan nan nan nan nan nan 27 27 nan nan nan 25 nan 27 nan 22 nan nan nan nan nan
nan nan nan nan nan nan nan nan nan nan nan nan nan nan nan nan nan nan nan nan nan nan nan nan nan nan nan nan nan 28 25 nan nan 22 21 nan nan nan 21 18 nan nan nan nan
nan nan nan nan nan nan nan nan nan nan nan nan nan nan nan nan nan nan nan nan nan nan nan nan nan nan nan nan nan nan 26 nan nan nan 19 21 22 21 nan nan nan nan nan nan
nan nan nan nan nan nan nan nan nan nan nan nan nan nan nan nan nan nan nan nan nan nan nan nan nan nan nan nan nan nan nan nan nan nan nan 19 19 19 12 nan nan nan nan 12
nan nan nan nan nan nan nan nan nan nan nan nan nan nan nan nan nan nan nan nan nan nan nan nan nan nan nan nan nan nan nan nan 20 17 nan 21 nan 9 nan nan nan nan nan nan
nan nan nan nan nan nan nan nan nan nan nan nan nan nan nan nan nan nan nan nan nan nan nan nan nan nan nan nan nan nan nan nan nan nan nan nan nan nan nan nan nan nan nan nan
nan nan nan nan nan nan nan nan nan nan nan nan nan nan nan nan nan nan nan nan nan nan nan nan nan nan nan nan nan nan nan nan nan nan nan nan nan nan nan nan nan nan nan nan
nan nan nan nan nan nan nan nan nan nan nan nan nan nan nan nan nan nan nan nan nan nan nan nan nan nan nan nan nan nan nan nan nan nan nan 17 nan nan nan nan nan nan nan nan
nan nan nan nan nan nan nan nan nan nan nan nan nan nan nan nan nan nan nan nan nan nan nan nan nan nan nan nan nan nan nan nan nan nan nan 17 18 18 nan nan nan nan nan nan
nan nan nan nan nan nan nan nan nan nan nan nan nan nan nan nan nan nan nan nan nan 30 nan nan nan nan nan nan nan nan nan nan nan nan nan nan 15 15 20 19 nan nan nan nan
nan nan nan nan nan nan nan nan nan nan nan nan nan nan nan nan nan nan 36 35 30 nan nan nan nan nan nan nan nan nan nan nan nan nan nan nan 10 12 16 20 nan 17 17 nan
nan nan nan nan nan nan nan nan nan nan nan nan nan nan nan nan 36 38 33 34 nan nan nan nan nan nan nan nan nan nan nan nan nan nan nan nan 12 13 16 21 nan nan nan 18
nan nan nan nan nan nan nan nan nan nan nan nan nan nan nan nan nan 33 31 nan nan nan nan nan nan nan nan nan nan nan nan nan nan nan nan nan nan 15 19 nan 20 nan nan nan
nan nan nan nan nan nan nan nan nan nan nan nan nan nan nan nan nan 41 nan nan nan nan nan nan nan nan nan nan nan nan nan nan nan nan nan nan nan nan 17 14 18 nan nan 14
nan nan nan nan nan nan nan nan nan nan nan nan nan nan nan nan nan nan nan nan nan nan nan nan nan nan nan nan nan nan nan nan nan nan nan nan nan 13 nan nan nan nan 18 nan
nan nan nan nan nan nan nan nan nan nan nan nan nan nan nan nan nan nan nan nan nan nan nan nan nan nan nan nan nan nan nan nan nan nan nan nan nan nan nan nan nan nan nan nan
nan nan nan nan nan nan nan nan nan nan nan nan nan nan nan nan nan 35 nan nan nan nan nan nan nan nan nan nan nan nan nan nan nan nan nan nan nan 14 nan nan nan nan nan nan
nan nan nan nan nan nan nan nan nan nan nan nan nan nan nan nan nan 24 34 30 31 22 nan nan nan nan nan nan nan nan nan nan nan nan nan nan nan nan 14 nan nan nan nan nan
nan nan nan nan nan nan nan nan nan nan nan nan nan nan nan nan nan nan nan 34 27 nan nan nan nan nan nan nan nan nan nan nan nan nan nan nan nan nan nan 13 nan 15 nan nan
nan nan 46 nan nan nan nan nan nan nan nan nan nan nan nan nan nan nan nan 30 34 33 nan nan nan nan nan nan nan nan nan nan nan nan nan nan nan nan nan 11 9 9 10 12
nan nan nan nan 58 57 48 nan nan nan nan nan nan nan nan nan nan nan 28 35 40 31 18 15 14 nan nan nan nan nan nan nan nan nan nan nan nan nan 2 8 5 7 7 11
nan nan nan nan 52 66 73 65 48 30 41 nan 42 37 nan nan nan nan 28 38 37 31 25 14 14 18 15 nan nan nan nan nan nan nan nan nan nan nan 3 5 4 4 6 9
nan nan nan nan nan nan nan nan nan nan 36 37 37 30 nan nan nan nan 30 38 36 28 23 19 16 15 11 12 nan nan nan nan nan nan nan nan nan 5 2 1 2 4 nan nan
nan nan nan nan nan nan nan nan nan nan nan nan nan nan nan nan nan nan 28 34 32 27 24 26 18 15 14 12 12 11 nan nan nan nan nan nan nan 8 5 3 2 2 nan nan
nan nan nan nan nan nan nan nan nan nan 56 nan nan nan nan nan nan nan 31 31 28 24 28 27 21 17 18 17 16 16 14 nan nan nan nan nan nan nan nan 11 12 nan nan nan
Wind_Direction
nan nan nan nan nan nan nan nan nan nan nan nan nan nan nan nan nan nan nan nan nan nan nan nan nan nan nan nan nan 327 nan nan 329 nan 331 nan 332 nan 332 346 nan nan nan nan
nan nan nan nan nan nan nan nan nan nan nan nan nan nan nan nan nan nan nan nan nan nan nan nan nan nan nan nan nan 334 333 nan nan nan 334 nan 336 nan 331 nan nan nan nan nan
nan nan nan nan nan nan nan nan nan nan nan nan nan nan nan nan nan nan nan nan nan nan nan nan nan nan nan nan nan 334 333 nan nan 332 326 nan nan nan 333 336 nan nan nan nan
nan nan nan nan nan nan nan nan nan nan nan nan nan nan nan nan nan nan nan nan nan nan nan nan nan nan nan nan nan nan 327 nan nan nan 323 327 336 340 nan nan nan nan nan nan
nan nan nan nan nan nan nan nan nan nan nan nan nan nan nan nan nan nan nan nan nan nan nan nan nan nan nan nan nan nan nan nan nan nan nan 326 334 343 2 nan nan nan nan 360
nan nan nan nan nan nan nan nan nan nan nan nan nan nan nan nan nan nan nan nan nan nan nan nan nan nan nan nan nan nan nan nan 336 343 nan 319 nan 0 nan nan nan nan nan nan
nan nan nan nan nan nan nan nan nan nan nan nan nan nan nan nan nan nan nan nan nan nan nan nan nan nan nan nan nan nan nan nan nan nan nan nan nan nan nan nan nan nan nan nan
nan nan nan nan nan nan nan nan nan nan nan nan nan nan nan nan nan nan nan nan nan nan nan nan nan nan nan nan nan nan nan nan nan nan nan nan nan nan nan nan nan nan nan nan
nan nan nan nan nan nan nan nan nan nan nan nan nan nan nan nan nan nan nan nan nan nan nan nan nan nan nan nan nan nan nan nan nan nan nan 343 nan nan nan nan nan nan nan nan
nan nan nan nan nan nan nan nan nan nan nan nan nan nan nan nan nan nan nan nan nan nan nan nan nan nan nan nan nan nan nan nan nan nan nan 346 352 6 nan nan nan nan nan nan
nan nan nan nan nan nan nan nan nan nan nan nan nan nan nan nan nan nan nan nan nan 321 nan nan nan nan nan nan nan nan nan nan nan nan nan nan 9 8 18 20 nan nan nan nan
nan nan nan nan nan nan nan nan nan nan nan nan nan nan nan nan nan nan 321 321 326 nan nan nan nan nan nan nan nan nan nan nan nan nan nan nan 3 7 22 26 nan 43 56 nan
nan nan nan nan nan nan nan nan nan nan nan nan nan nan nan nan 286 304 310 325 nan nan nan nan nan nan nan nan nan nan nan nan nan nan nan nan 22 18 35 32 nan nan nan 74
nan nan nan nan nan nan nan nan nan nan nan nan nan nan nan nan nan 308 310 nan nan nan nan nan nan nan nan nan nan nan nan nan nan nan nan nan nan 31 41 nan 27 nan nan nan
nan nan nan nan nan nan nan nan nan nan nan nan nan nan nan nan nan 307 nan nan nan nan nan nan nan nan nan nan nan nan nan nan nan nan nan nan nan nan 45 32 31 nan nan 74
nan nan nan nan nan nan nan nan nan nan nan nan nan nan nan nan nan nan nan nan nan nan nan nan nan nan nan nan nan nan nan nan nan nan nan nan nan 52 nan nan nan nan 65 nan
nan nan nan nan nan nan nan nan nan nan nan nan nan nan nan nan nan nan nan nan nan nan nan nan nan nan nan nan nan nan nan nan nan nan nan nan nan nan nan nan nan nan nan nan
nan nan nan nan nan nan nan nan nan nan nan nan nan nan nan nan nan 294 nan nan nan nan nan nan nan nan nan nan nan nan nan nan nan nan nan nan nan 65 nan nan nan nan nan nan
nan nan nan nan nan nan nan nan nan nan nan nan nan nan nan nan nan 274 304 310 318 330 nan nan nan nan nan nan nan nan nan nan nan nan nan nan nan nan 73 nan nan nan nan nan
nan nan nan nan nan nan nan nan nan nan nan nan nan nan nan nan nan nan nan 311 305 nan nan nan nan nan nan nan nan nan nan nan nan nan nan nan nan nan nan 61 nan 83 nan nan
nan nan 195 nan nan nan nan nan nan nan nan nan nan nan nan nan nan nan nan 287 300 307 nan nan nan nan nan nan nan nan nan nan nan nan nan nan nan nan nan 38 68 72 81 82
nan nan nan nan 206 205 202 nan nan nan nan nan nan nan nan nan nan nan 259 288 293 298 298 293 277 nan nan nan nan nan nan nan nan nan nan nan nan nan 352 350 3 21 48 67
nan nan nan nan 201 194 197 187 182 215 235 nan 244 247 nan nan nan nan 256 281 288 293 307 270 270 269 285 nan nan nan nan nan nan nan nan nan nan nan 310 339 18 77 75 88
nan nan nan nan nan nan nan nan nan nan 204 229 235 247 nan nan nan nan 255 266 281 278 288 285 267 287 298 298 nan nan nan nan nan nan nan nan nan 224 289 323 91 103 nan nan
nan nan nan nan nan nan nan nan nan nan nan nan nan nan nan nan nan nan 249 266 271 272 268 287 273 273 289 299 303 287 nan nan nan nan nan nan nan 252 248 257 268 174 nan nan
nan nan nan nan nan nan nan nan nan nan 189 nan nan nan nan nan nan nan 251 260 264 258 259 269 274 262 267 282 278 282 280 nan nan nan nan nan nan nan nan 247 230 nan nan nan